Flag for U.S.A. Weather past 2 weeks in Vevay, Indiana, U.S.A.

Now
72 °F

Fog.


Feels Like: 70 °F
Forecast: 69 / 92 °F
Wind: No wind

Location: Cincinnati / Northern Kentucky International Airport

Current Time: Aug 27, 2014 at 8:00:15 AM

Latest Report: Aug 27, 2014 at 6:52 AM


Visibility: 6 mi

Pressure: 30.07 "Hg

Humidity: 87%

Dew point: 68 °F

Location of VevayLocation

Historic Weather in Vevay — Graph

°F

Vevay temperature yesterday

Maximum temperature yesterday: 90 °F (at 3:52 PM)
Minimum temperature yesterday: 70 °F (at 6:52 AM)
Average temperature yesterday: 79 °F

Past Weeks' High & Low Weather Summary

 TemperatureHumidityPressure
High90 °F (Aug 23, 4:52 PM)100% (Aug 23, 7:03 AM)30.13 "Hg (Aug 23, 7:03 AM)
Low52 °F (Aug 16, 3:52 AM)27% (Aug 15, 3:52 PM)29.78 "Hg (Aug 18, 6:52 PM)
Average74 °F73%29.96 "Hg
* Reported Aug 12 5:52 AM — Aug 27 5:52 AM, Vevay, Weather by CustomWeather, © 2014

Note: Actual official high and low records may vary slightly from our data, if they occured in-between our weather recording intervals... More about our weather records

Advertising

Vevay weather history for previous 24 hours

 ConditionsComfort  
Time TempWeatherWind HumidityBarometerVisibility
5:52 AM
Aug 27
70 °FFog.3 mph90%30.06 "Hg5 mi
4:52 AM71 °FFog.No wind87%30.06 "Hg6 mi
3:52 AM70 °FPassing clouds.No wind90%30.06 "Hg7 mi
2:52 AM73 °FPassing clouds.No wind84%30.07 "Hg7 mi
1:52 AM73 °FFog.No wind88%30.07 "Hg6 mi
12:52 AM74 °FClear.No wind82%30.08 "Hg7 mi
11:52 PM
Aug 26
76 °FClear.No wind77%30.07 "Hg8 mi
10:52 PM77 °FPassing clouds.3 mph77%30.06 "Hg8 mi
9:52 PM75 °FPassing clouds.7 mph82%30.04 "Hg7 mi
8:52 PM76 °FPartly sunny.6 mph72%30.05 "Hg10 mi
7:52 PM80 °FPartly sunny.8 mph71%30.06 "Hg7 mi
6:52 PM87 °FThunderstorms. Partly sunny.9 mph55%30.06 "Hg8 mi
5:52 PM88 °FPartly sunny.6 mph54%30.05 "Hg8 mi
4:52 PM88 °FPartly sunny.No wind52%30.06 "Hg8 mi
3:52 PM90 °FBroken clouds.No wind48%30.06 "Hg9 mi
2:52 PM88 °FBroken clouds.No wind54%30.09 "Hg9 mi
1:52 PM86 °FScattered clouds.3 mph55%30.10 "Hg9 mi
12:52 PM87 °FScattered clouds.No wind53%30.12 "Hg10 mi
11:52 AM83 °FPassing clouds.5 mph57%30.13 "Hg10 mi
10:52 AM82 °FPassing clouds.5 mph56%30.13 "Hg10 mi
9:52 AM78 °FScattered clouds.No wind71%30.12 "Hg10 mi
8:52 AM74 °FScattered clouds.3 mph79%30.11 "Hg8 mi
Weather by CustomWeather, © 2014

See weather overviewHow to use our weather pages